Danbury, CT

5:36 PM EDT on October 17, 2017 (GMT -0400)
Danbury Municipal

Weather History for KDXR - March, 2013

Change the Weather History Date:

Sunday, March 10, 2013

  Actual Average Record
Temperature  
Mean Temperature 34 °F -  
Max Temperature 46 °F 45 °F 73 °F (2016)
Min Temperature 21 °F 25 °F 2 °F (1984)
Degree Days  
Heating Degree Days 32    
Moisture  
Dew Point 27 °F    
Average Humidity 72    
Maximum Humidity 89    
Minimum Humidity 46    
Precipitation  
Precipitation 0.00 in - - ()
Sea Level Pressure  
Sea Level Pressure 30.34 in    
Wind  
Wind Speed 2 mph (SSE)    
Max Wind Speed 9 mph    
Max Gust Speed -    
Visibility 10 miles    
Events      
Averages and records for this station are not official NWS values.
T = Trace of Precipitation, MM = Missing Value Source: NWS Daily Summary

Daily Weather History Graph

Daily Weather History Graph

Search for Another Location

Airport or City:

Trip Planner

Search our weather history database for the weather conditions in past years. The results will help you decide how hot, cold, wet, or windy it might be!

Date:

Astronomy

Mar. 10, 2013 Rise Set
Actual Time 7:13 AM EDT 6:55 PM EDT
Civil Twilight 6:46 AM EDT 7:22 PM EDT
Nautical Twilight 6:14 AM EDT 7:54 PM EDT
Astronomical Twilight 5:41 AM EDT 8:27 PM EDT
Moon 6:12 AM EDT (3/10) 6:00 PM EDT (3/10)
Length of Visible Light 12h 36m
Length of Day
11h 41m
Waning Crescent, 2% of the Moon is Illuminated
Mar 10
Waning Crescent
Mar 11
New
Mar 19
First Quarter
Mar 27
Full
Apr 3
Last Quarter

Hourly Weather History & Observations

Time (EDT) Temp. Windchill Dew Point Humidity Pressure Visibility Wind Dir Wind Speed Gust Speed Precip Events Conditions
12:53 AM 27.0 °F - 21.9 °F 81% 30.35 in 10.0 mi Calm Calm - N/A   Clear
1:53 AM 25.0 °F - 21.0 °F 85% 30.35 in 10.0 mi Calm Calm - N/A   Clear
3:53 AM 21.9 °F - 19.0 °F 89% 30.35 in 10.0 mi Calm Calm - N/A   Clear
4:53 AM 21.0 °F - 18.0 °F 88% 30.36 in 10.0 mi Calm Calm - N/A   Clear
5:53 AM 21.9 °F - 19.0 °F 89% 30.37 in 9.0 mi Calm Calm - N/A   Clear
6:53 AM 21.0 °F - 18.0 °F 88% 30.38 in 9.0 mi Calm Calm - N/A   Clear
8:53 AM 27.0 °F - 24.1 °F 89% 30.40 in 7.0 mi Calm Calm - N/A   Clear
9:53 AM 36.0 °F 32.1 °F 27.0 °F 70% 30.40 in 10.0 mi NE 4.6 mph - N/A   Clear
10:53 AM 39.0 °F 36.8 °F 28.0 °F 65% 30.39 in 10.0 mi NE 3.5 mph - N/A   Clear
11:53 AM 42.1 °F 40.2 °F 28.0 °F 58% 30.38 in 10.0 mi Variable 3.5 mph - N/A   Clear
12:53 PM 44.1 °F 42.5 °F 28.9 °F 55% 30.36 in 10.0 mi SSW 3.5 mph - N/A   Clear
1:53 PM 46.9 °F - 28.0 °F 48% 30.34 in 10.0 mi SE 8.1 mph - N/A   Clear
2:53 PM 46.9 °F - 28.9 °F 50% 30.33 in 10.0 mi SE 5.8 mph - N/A   Clear
3:53 PM 46.9 °F - 27.0 °F 46% 30.32 in 10.0 mi South 5.8 mph - N/A   Clear
4:53 PM 46.9 °F - 30.0 °F 52% 30.31 in 10.0 mi SE 9.2 mph - N/A   Clear
5:53 PM 46.0 °F 42.5 °F 30.9 °F 56% 30.30 in 10.0 mi SSE 6.9 mph - N/A   Clear
6:53 PM 42.1 °F 38.4 °F 30.9 °F 65% 30.32 in 10.0 mi South 5.8 mph - N/A   Clear
7:53 PM 39.9 °F 37.8 °F 30.9 °F 70% 30.33 in 10.0 mi SSE 3.5 mph - N/A   Clear
8:53 PM 37.9 °F - 30.0 °F 73% 30.33 in 10.0 mi Calm Calm - N/A   Clear
9:51 PM 37.4 °F 33.8 °F 30.2 °F 75% 30.32 in 10.0 mi South 4.6 mph - N/A   Mostly Cloudy
9:53 PM 37.0 °F - 30.9 °F 79% 30.33 in 10.0 mi Calm Calm - N/A   Mostly Cloudy
10:05 PM 37.4 °F - 30.2 °F 75% 30.31 in 10.0 mi Calm Calm - N/A   Mostly Cloudy
10:53 PM 36.0 °F 33.3 °F 30.9 °F 82% 30.32 in 10.0 mi Variable 3.5 mph - N/A   Clear
11:53 PM 36.0 °F 33.3 °F 30.9 °F 82% 30.32 in 10.0 mi SW 3.5 mph - N/A   Scattered Clouds
12:15 AM 35.6 °F - 30.2 °F 81% 30.31 in 10.0 mi Calm Calm - N/A   Mostly Cloudy
12:51 AM 35.6 °F 32.8 °F 30.2 °F 81% 30.32 in 10.0 mi WNW 3.5 mph - N/A   Overcast
12:53 AM 36.0 °F - 30.9 °F 82% 30.33 in 10.0 mi Calm Calm - N/A   Overcast